Tracking 19832 objects as of 24-Aug-2019
HD Live streaming from Space Station
objects crossing your sky now

SL-14 R/B

Track SL-14 R/B now!
10-day predictions
SL-14 R/B is classified as:


NORAD ID: 15945
Int'l Code: 1985-069B
Perigee: 609.8 km
Apogee: 637.9 km
Inclination: 82.5 °
Period: 97.0 minutes
Semi major axis: 6994 km
RCS: 5.1348 m2 (large)
Launch date: August 8, 1985
Source: Commonwealth of Independent States (former USSR) (CIS)
Launch site: PLESETSK MISSILE AND SPACE COMPLEX (PKMTR)

Note: This is a ROCKET BODY
aabbcc
Your satellite tracking list
Your tracking list is empty




NASA's NSSDC Master Catalog

Two Line Element Set (TLE):
1 15945U 85069B   19235.89642988 +.00000040 +00000-0 +18236-5 0  9995
2 15945 082.5268 105.9255 0020065 165.1007 195.0804 14.84011692818254
Source of the keplerian elements: AFSPC